Weather History for Ramona, CA

Change the Weather History Date:

Tuesday, November 5, 2013

  Actual Average Record
Temperature  
Mean Temperature 54 °F 59 °F  
Max Temperature 74 °F 75 °F 93 °F (1976)
Min Temperature 34 °F 43 °F 32 °F (1979)
Degree Days  
Heating Degree Days 11 7  
Month to date heating degree days 46 32  
Since 1 July heating degree days 198 151  
Cooling Degree Days 0 0  
Month to date cooling degree days 0 4  
Year to date cooling degree days 893 848  
Growing Degree Days 4 (Base 50)    
Moisture  
Dew Point 35 °F    
Average Humidity 58    
Maximum Humidity 100    
Minimum Humidity 15    
Precipitation  
Precipitation 0.00 in 0.03 in 1.53 in (1987)
Month to date precipitation 0.00 0.26  
Year to date precipitation 6.21 12.88  
Since 1 July precipitation 1.71 1.55  
Snow  
Snow 0.00 in - - ()
Month to date snowfall 0.0  
Year to date snowfall 0.0  
Since 1 July snowfall 0.0  
Snow Depth 0.00 in    
Sea Level Pressure  
Sea Level Pressure 30.01 in    
Wind  
Wind Speed 3 mph (NNE)    
Max Wind Speed 13 mph    
Max Gust Speed 23 mph    
Visibility 4 miles    
Events Fog    
T = Trace of Precipitation, MM = Missing Value Source: NWS Daily Summary

Daily Weather History Graph

Daily Weather History Graph

Search for Another Location

Airport:

Trip Planner

Search our weather history database for the weather conditions in past years. The results will help you decide how hot, cold, wet, or windy it might be!

Date:

Astronomy

Nov. 05, 2013 Rise Set
Actual Time 6:09 AM PST 4:52 PM PST
Civil Twilight 5:43 AM PST 5:18 PM PST
Nautical Twilight 5:14 AM PST 5:47 PM PST
Astronomical Twilight 4:45 AM PST 6:16 PM PST
Moon 8:24 AM PST (11/5) 7:03 PM PST (11/5)
Length of Visible Light 11h 34m
Length of Day
10h 42m
Waxing Crescent, 7% of the Moon is Illuminated
Nov 5
Waxing Crescent
Nov 9
First Quarter
Nov 17
Full
Nov 25
Last Quarter
Dec 2
New

Hourly Weather History & Observations

Time (PST) Temp. Windchill Dew Point Humidity Pressure Visibility Wind Dir Wind Speed Gust Speed Precip Events Conditions
12:03 AM 44.6 °F - 42.8 °F 93% 29.94 in 7.0 mi Calm Calm - N/A   Overcast
12:30 AM 42.8 °F - 41.0 °F 93% 29.95 in 1.2 mi Calm Calm - N/A   Overcast
12:33 AM 41.0 °F - 41.0 °F 100% 29.95 in 0.5 mi Calm Calm - N/A Fog Fog
12:40 AM 41.0 °F - 39.2 °F 93% 29.95 in 0.2 mi Calm Calm - N/A Fog Fog
12:48 AM 41.0 °F - 39.2 °F 93% 29.95 in 0.2 mi Calm Calm - N/A Fog Fog
12:53 AM 41.0 °F - 39.9 °F 96% 29.94 in 0.2 mi Calm Calm - N/A Fog Fog
1:03 AM 39.2 °F - 39.2 °F 100% 29.96 in 0.2 mi Calm Calm - N/A Fog Fog
1:12 AM 39.2 °F - 39.2 °F 100% 29.96 in 0.2 mi Calm Calm - N/A Fog Fog
1:53 AM 41.0 °F - 39.9 °F 96% 29.96 in 0.2 mi Calm Calm - N/A Fog Fog
2:08 AM 41.0 °F - 39.2 °F 93% 29.96 in 0.2 mi Calm Calm - N/A Fog Fog
2:20 AM 39.2 °F - 39.2 °F 100% 29.96 in 0.2 mi Calm Calm - N/A Fog Fog
2:34 AM 39.2 °F - 37.4 °F 93% 29.96 in 0.8 mi Calm Calm - N/A   Mist
2:38 AM 39.2 °F - 39.2 °F 100% 29.96 in 1.2 mi Calm Calm - N/A   Overcast
2:44 AM 41.0 °F 39.0 °F 39.2 °F 93% 29.96 in 3.0 mi ENE 3.5 mph - N/A   Mostly Cloudy
2:53 AM 41.0 °F 39.0 °F 39.0 °F 93% 29.96 in 3.0 mi ENE 3.5 mph - N/A   Mostly Cloudy
3:02 AM 41.0 °F 39.0 °F 39.2 °F 93% 29.96 in 4.0 mi East 3.5 mph - N/A   Scattered Clouds
3:10 AM 37.4 °F - 37.4 °F 100% 29.97 in 1.5 mi Calm Calm - N/A   Partly Cloudy
3:12 AM 37.4 °F - 37.4 °F 100% 29.97 in 0.8 mi Calm Calm - N/A   Mist
3:22 AM 37.4 °F - 37.4 °F 100% 29.97 in 0.2 mi Calm Calm - N/A Fog Fog
3:29 AM 37.4 °F - 37.4 °F 100% 29.98 in 1.0 mi Calm Calm - N/A   Mist
3:32 AM 37.4 °F - 37.4 °F 100% 29.98 in 2.0 mi Calm Calm - N/A   Scattered Clouds
3:40 AM 37.4 °F - 37.4 °F 100% 29.98 in 6.0 mi Calm Calm - N/A   Partly Cloudy
3:53 AM 37.0 °F - 37.0 °F 100% 29.98 in 1.2 mi Calm Calm - N/A   Scattered Clouds
3:58 AM 37.4 °F - 37.4 °F 100% 29.98 in 0.8 mi Calm Calm - N/A   Mist
4:14 AM 37.4 °F 34.9 °F 35.6 °F 93% 29.99 in 1.2 mi ENE 3.5 mph - N/A   Scattered Clouds
4:23 AM 35.6 °F - 35.6 °F 100% 30.00 in 0.8 mi Calm Calm - N/A   Mist
4:37 AM 37.4 °F - 37.4 °F 100% 29.99 in 1.2 mi Calm Calm - N/A   Scattered Clouds
4:44 AM 37.4 °F 34.9 °F 35.6 °F 93% 29.99 in 3.0 mi ENE 3.5 mph - N/A   Scattered Clouds
4:53 AM 39.0 °F - 37.0 °F 93% 29.99 in 4.0 mi Calm Calm - N/A   Partly Cloudy
5:18 AM 37.4 °F - 35.6 °F 93% 30.00 in 1.8 mi Calm Calm - N/A   Scattered Clouds
5:26 AM 35.6 °F - 35.6 °F 100% 30.00 in 0.8 mi Calm Calm - N/A   Mist
5:33 AM 37.4 °F 34.9 °F 35.6 °F 93% 30.01 in 1.2 mi East 3.5 mph - N/A   Scattered Clouds
5:37 AM 35.6 °F - 35.6 °F 100% 30.01 in 3.0 mi Calm Calm - N/A   Scattered Clouds
5:44 AM 35.6 °F - 35.6 °F 100% 30.01 in 2.0 mi Calm Calm - N/A   Scattered Clouds
5:53 AM 37.9 °F - 36.0 °F 93% 30.01 in 3.0 mi Calm Calm - N/A   Scattered Clouds
6:51 AM 35.6 °F - 35.6 °F 100% 30.04 in 1.8 mi Calm Calm - N/A   Clear
6:53 AM 37.0 °F - 36.0 °F 96% 30.04 in 1.8 mi Calm Calm - N/A   Clear
7:53 AM 48.0 °F - 45.0 °F 89% 30.06 in 8.0 mi Calm Calm - N/A   Clear
8:53 AM 57.0 °F - 42.1 °F 57% 30.06 in 10.0 mi Calm Calm - N/A   Clear
9:53 AM 64.9 °F - 41.0 °F 42% 30.07 in 10.0 mi Calm Calm - N/A   Clear
10:53 AM 71.1 °F - 21.9 °F 16% 30.05 in 10.0 mi Variable 3.5 mph - N/A   Clear
11:53 AM 72.0 °F - 36.0 °F 27% 30.04 in 10.0 mi NW 9.2 mph - N/A   Clear
12:53 PM 73.0 °F - 32.0 °F 22% 30.04 in 10.0 mi NW 8.1 mph - N/A   Clear
1:53 PM 73.0 °F - 32.0 °F 22% 30.03 in 10.0 mi NNW 6.9 mph - N/A   Clear
2:53 PM 70.0 °F - 45.0 °F 41% 30.04 in 10.0 mi West 9.2 mph - N/A   Clear
3:53 PM 66.9 °F - 43.0 °F 42% 30.06 in 10.0 mi WNW 9.2 mph - N/A   Clear
4:53 PM 57.0 °F - 43.0 °F 59% 30.08 in 10.0 mi West 8.1 mph - N/A   Clear
5:53 PM 57.0 °F - 41.0 °F 55% 30.10 in 10.0 mi Calm Calm - N/A   Clear
6:53 PM 55.9 °F - 19.0 °F 24% 30.12 in 10.0 mi NE 4.6 mph - N/A   Clear
7:53 PM 53.1 °F - 17.1 °F 24% 30.12 in 10.0 mi NNE 5.8 mph - N/A   Clear
8:53 PM 54.0 °F - 15.1 °F 22% 30.11 in 10.0 mi NNE 9.2 mph - N/A   Clear
9:53 PM 57.0 °F - 12.9 °F 18% 30.10 in 10.0 mi NNE 12.7 mph - N/A   Clear
10:53 PM 54.0 °F - 12.9 °F 20% 30.11 in 10.0 mi ENE 6.9 mph - N/A   Clear
11:53 PM 45.0 °F - 18.0 °F 34% 30.12 in 10.0 mi Calm Calm - N/A   Clear